Dades meteomassalio
Diari Summary for Juliol 4, 2017 Units:  Metric    English   Both
« Previous Day
Next Day »
Diari Semanal Mensual Anual Personalitzat
  Maxima: Minima: Mijana:
Temperatura: -17.8 °C -9.3 °C -3.8 °C
Rosada: -17.8 °C -11.6 °C -10.3 °C
Humitat: Humidity % 32 % 51 %
Velocitat del vent: 0 km/h 0 km/h 14.5 km/h
Racha vent: 0 km/h - -
Vent:- - ESE
Pressio: 0 hPa 34313.7 hPa -
Pluja: 0 mm    
Historical Graphs
 
 
Tabular Data for Juliol 4, 2017
Time Temperature Dew Point Pressure Wind Wind Speed Wind Gust Humidity Rainfall Rate (Hourly) solar Conditions
-17.8 °C -17.8 °C 0 hPa Calm     Humidity % 0 mm SolarRadiationWatts/m^2 W/m2 Conditions
00:01 -4.8 °C -9.5 °C 34486.4 hPa Calm     59 % 0 mm 0.0 W/m2 CLR
00:06 -4.8 °C -9.6 °C 34486.4 hPa Calm     59 % 0 mm 0.0 W/m2 CLR
00:11 -4.9 °C -9.4 °C 34486.4 hPa Calm     60 % 0 mm 0.0 W/m2 CLR
00:16 -4.9 °C -9.5 °C 34486.4 hPa Calm     60 % 0 mm 0.0 W/m2 CLR
00:21 -5.1 °C -9.5 °C 34486.4 hPa Calm     61 % 0 mm 0.0 W/m2 CLR
00:26 -5.1 °C -9.5 °C 34486.4 hPa Calm     61 % 0 mm 0.0 W/m2 CLR
00:31 -5.2 °C -9.5 °C 34486.4 hPa Calm     62 % 0 mm 0.0 W/m2 CLR
00:36 -5.3 °C -9.6 °C 34486.4 hPa Calm     62 % 0 mm 0.0 W/m2 CLR
00:41 -5.4 °C -9.6 °C 34486.4 hPa Calm     62 % 0 mm 0.0 W/m2 CLR
00:46 -5.5 °C -9.7 °C 34486.4 hPa Calm     62 % 0 mm 0.0 W/m2 CLR
00:52 -5.6 °C -9.7 °C 34486.4 hPa Calm     63 % 0 mm 0.0 W/m2 CLR
00:57 -5.7 °C -9.8 °C 34486.4 hPa Calm     63 % 0 mm 0.0 W/m2 CLR
01:02 -5.8 °C -10.1 °C 34486.4 hPa Calm     62 % 0 mm 0.0 W/m2 CLR
01:07 -5.9 °C -10 °C 34486.4 hPa Calm     63 % 0 mm 0.0 W/m2 CLR
01:12 -6 °C -10.1 °C 34486.4 hPa Calm     63 % 0 mm 0.0 W/m2 CLR
01:17 -6.1 °C -10.1 °C 34486.4 hPa Calm     63 % 0 mm 0.0 W/m2 CLR
01:22 -6.2 °C -10.1 °C 34476.3 hPa Calm     64 % 0 mm 0.0 W/m2 CLR
01:27 -6.3 °C -10.1 °C 34476.3 hPa Calm     65 % 0 mm 0.0 W/m2 CLR
01:32 -6.4 °C -10.1 °C 34486.4 hPa Calm     66 % 0 mm 0.0 W/m2 CLR
01:33 -6.4 °C -10.1 °C 34476.3 hPa Calm     66 % 0 mm 0.0 W/m2 CLR
01:38 -6.5 °C -10.1 °C 34486.4 hPa Calm     66 % 0 mm 0.0 W/m2 CLR
01:43 -6.6 °C -10.2 °C 34476.3 hPa Calm     66 % 0 mm 0.0 W/m2 CLR
01:48 -6.6 °C -10.1 °C 34476.3 hPa Calm     67 % 0 mm 0.0 W/m2 CLR
01:53 -6.6 °C -10.2 °C 34476.3 hPa Calm     67 % 0 mm 0.0 W/m2 CLR
01:58 -6.7 °C -10.1 °C 34476.3 hPa Calm     68 % 0 mm 0.0 W/m2 CLR
02:03 -6.8 °C -10 °C 34476.3 hPa Calm     69 % 0 mm 0.0 W/m2 CLR
02:05 -6.8 °C -10.1 °C 34476.3 hPa Calm     69 % 0 mm 0.0 W/m2 CLR
02:10 -6.8 °C -10.1 °C 34476.3 hPa Calm     69 % 0 mm 0.0 W/m2 CLR
02:15 -6.9 °C -10 °C 34476.3 hPa Calm     70 % 0 mm 0.0 W/m2 CLR
02:20 -6.9 °C -10.1 °C 34476.3 hPa Calm     70 % 0 mm 0.0 W/m2 CLR
02:25 -7 °C -10.1 °C 34476.3 hPa Calm     70 % 0 mm 0.0 W/m2 CLR
02:30 -7 °C -10.1 °C 34476.3 hPa Calm     70 % 0 mm 0.0 W/m2 CLR
02:35 -7.1 °C -10.1 °C 34476.3 hPa Calm     71 % 0 mm 0.0 W/m2 CLR
02:40 -7.2 °C -10.2 °C 34476.3 hPa Calm     71 % 0 mm 0.0 W/m2 CLR
02:45 -7.2 °C -10.2 °C 34476.3 hPa Calm     71 % 0 mm 0.0 W/m2 CLR
02:50 -7.3 °C -10.2 °C 34476.3 hPa Calm     72 % 0 mm 0.0 W/m2 CLR
02:55 -7.3 °C -10.2 °C 34476.3 hPa Calm     72 % 0 mm 0.0 W/m2 CLR
03:00 -7.3 °C -10.3 °C 34476.3 hPa Calm     71 % 0 mm 0.0 W/m2 CLR
03:01 -7.3 °C -10.3 °C 34476.3 hPa Calm     71 % 0 mm 0.0 W/m2 CLR
03:06 -7.3 °C -10.3 °C 34476.3 hPa Calm     71 % 0 mm 0.0 W/m2 CLR
03:11 -7.2 °C -10.2 °C 34462.7 hPa Calm     71 % 0 mm 0.0 W/m2 CLR
03:16 -7.2 °C -10.3 °C 34462.7 hPa Calm     70 % 0 mm 0.0 W/m2 CLR
03:21 -7.2 °C -10.3 °C 34462.7 hPa Calm     70 % 0 mm 0.0 W/m2 CLR
03:26 -7.3 °C -10.5 °C 34462.7 hPa Calm     69 % 0 mm 0.0 W/m2 CLR
03:31 -7.3 °C -10.6 °C 34462.7 hPa Calm     69 % 0 mm 0.0 W/m2 CLR
03:36 -7.4 °C -10.5 °C 34462.7 hPa Calm     70 % 0 mm 0.0 W/m2 CLR
03:41 -7.6 °C -10.7 °C 34462.7 hPa Calm     70 % 0 mm 0.0 W/m2 CLR
03:46 -7.7 °C -10.6 °C 34462.7 hPa Calm     71 % 0 mm 0.0 W/m2 CLR
03:51 -7.8 °C -10.8 °C 34462.7 hPa Calm     71 % 0 mm 0.0 W/m2 CLR
03:56 -7.9 °C -10.9 °C 34462.7 hPa Calm     71 % 0 mm 0.0 W/m2 CLR
04:01 -8 °C -10.8 °C 34462.7 hPa Calm     72 % 0 mm 0.0 W/m2 CLR
04:06 -8 °C -10.7 °C 34462.7 hPa Calm     73 % 0 mm 0.0 W/m2 CLR
04:11 -8.1 °C -10.8 °C 34462.7 hPa Calm     73 % 0 mm 0.0 W/m2 CLR
04:16 -8.1 °C -10.8 °C 34462.7 hPa Calm     73 % 0 mm 0.0 W/m2 CLR
04:21 -8.2 °C -10.9 °C 34462.7 hPa Calm     73 % 0 mm 0.0 W/m2 CLR
04:26 -8.2 °C -10.9 °C 34462.7 hPa Calm     73 % 0 mm 0.0 W/m2 CLR
04:31 -8.2 °C -10.9 °C 34462.7 hPa Calm     73 % 0 mm 0.0 W/m2 CLR
04:36 -8.3 °C -10.9 °C 34462.7 hPa Calm     74 % 0 mm 0.0 W/m2 CLR
04:41 -8.4 °C -10.9 °C 34462.7 hPa Calm     74 % 0 mm 0.0 W/m2 CLR
04:46 -8.4 °C -11 °C 34462.7 hPa Calm     74 % 0 mm 0.0 W/m2 CLR
04:51 -8.5 °C -10.9 °C 34462.7 hPa Calm     75 % 0 mm 0.0 W/m2 CLR
04:52 -8.5 °C -11 °C 34462.7 hPa Calm     75 % 0 mm 0.0 W/m2 CLR
04:57 -8.6 °C -11 °C 34462.7 hPa Calm     75 % 0 mm 0.0 W/m2 CLR
05:02 -8.6 °C -11 °C 34462.7 hPa Calm     75 % 0 mm 0.0 W/m2 CLR
05:07 -8.6 °C -11.1 °C 34462.7 hPa Calm     75 % 0 mm 0.0 W/m2 CLR
05:12 -8.6 °C -11.2 °C 34462.7 hPa Calm     74 % 0 mm 0.0 W/m2 CLR
05:17 -8.7 °C -11.1 °C 34462.7 hPa Calm     75 % 0 mm 0.0 W/m2 CLR
05:22 -8.7 °C -11.2 °C 34462.7 hPa Calm     75 % 0 mm 0.0 W/m2 CLR
05:27 -8.7 °C -11.2 °C 34462.7 hPa Calm     75 % 0 mm 0.0 W/m2 CLR
05:32 -8.8 °C -11.2 °C 34476.3 hPa Calm     75 % 0 mm 0.0 W/m2 CLR
05:37 -8.8 °C -11.3 °C 34476.3 hPa Calm     75 % 0 mm 0.0 W/m2 CLR
05:42 -8.8 °C -11.2 °C 34476.3 hPa Calm     76 % 0 mm 0.0 W/m2 CLR
05:47 -8.9 °C -11.2 °C 34476.3 hPa Calm     76 % 0 mm 0.0 W/m2 CLR
05:52 -9 °C -11.3 °C 34476.3 hPa Calm     76 % 0 mm 0.0 W/m2 CLR
05:57 -9 °C -11.3 °C 34476.3 hPa Calm     76 % 0 mm 0.0 W/m2 CLR
06:03 -9 °C -11.3 °C 34476.3 hPa Calm     76 % 0 mm 0.0 W/m2 CLR
06:08 -9.1 °C -11.4 °C 34476.3 hPa Calm     76 % 0 mm 0.0 W/m2 CLR
06:13 -9.1 °C -11.4 °C 34476.3 hPa Calm     76 % 0 mm 0.0 W/m2 CLR
06:18 -9.1 °C -11.4 °C 34476.3 hPa Calm     76 % 0 mm 0.0 W/m2 CLR
06:23 -9.1 °C -11.4 °C 34476.3 hPa Calm     76 % 0 mm 0.0 W/m2 OVC
06:28 -9.2 °C -11.4 °C 34476.3 hPa Calm     77 % 0 mm 0.0 W/m2 OVC
06:33 -9.2 °C -11.4 °C 34476.3 hPa Calm     77 % 0 mm 5.0 W/m2 OVC
06:38 -9.2 °C -11.4 °C 34476.3 hPa Calm     77 % 0 mm 7.0 W/m2 OVC
06:43 -9.3 °C -11.5 °C 34476.3 hPa Calm     77 % 0 mm 9.0 W/m2 BKN
06:48 -9.2 °C -11.4 °C 34476.3 hPa Calm     77 % 0 mm 11.0 W/m2 BKN
06:53 -9.3 °C -11.5 °C 34476.3 hPa Calm     77 % 0 mm 12.0 W/m2 BKN
06:58 -9.3 °C -11.5 °C 34486.4 hPa Calm     77 % 0 mm 14.0 W/m2 BKN
07:03 -9.3 °C -11.6 °C 34486.4 hPa Calm     77 % 0 mm 16.0 W/m2 BKN
07:08 -9.3 °C -11.6 °C 34486.4 hPa Calm     77 % 0 mm 23.0 W/m2 BKN
07:13 -9.3 °C -11.5 °C 34486.4 hPa Calm     77 % 0 mm 33.0 W/m2 BKN
07:18 -9.2 °C -11.4 °C 34486.4 hPa Calm     77 % 0 mm 42.0 W/m2 BKN
07:23 -9.1 °C -11.3 °C 34486.4 hPa Calm     77 % 0 mm 53.0 W/m2 SCT
07:28 -8.9 °C -11.3 °C 34486.4 hPa Calm     76 % 0 mm 63.0 W/m2 SCT
07:33 -8.8 °C -11.2 °C 34486.4 hPa Calm     76 % 0 mm 77.0 W/m2 SCT
07:38 -8.7 °C -11.1 °C 34486.4 hPa Calm     76 % 0 mm 91.0 W/m2 FEW
07:43 -8.5 °C -11.1 °C 34486.4 hPa Calm     74 % 0 mm 105.0 W/m2 CLR
07:48 -8.2 °C -10.9 °C 34486.4 hPa Calm     73 % 0 mm 120.0 W/m2 CLR
07:53 -7.9 °C -10.9 °C 34486.4 hPa Calm     71 % 0 mm 139.0 W/m2 CLR
07:58 -7.8 °C -10.9 °C 34486.4 hPa Calm     70 % 0 mm 155.0 W/m2 CLR
08:03 -7.6 °C -10.7 °C 34486.4 hPa Calm     70 % 0 mm 172.0 W/m2 CLR
08:08 -7.3 °C -10.6 °C 34486.4 hPa Calm     68 % 0 mm 188.0 W/m2 CLR
08:10 -7.1 °C -10.5 °C 34486.4 hPa Calm     68 % 0 mm 195.0 W/m2 CLR
08:15 -6.8 °C -10.4 °C 34486.4 hPa Calm     66 % 0 mm 211.0 W/m2 CLR
08:20 -6.5 °C -10.4 °C 34486.4 hPa Calm     64 % 0 mm 229.0 W/m2 CLR
08:25 -6.2 °C -10.3 °C 34486.4 hPa Calm     63 % 0 mm 244.0 W/m2 CLR
08:30 -6 °C -10.4 °C 34486.4 hPa Calm     61 % 0 mm 260.0 W/m2 CLR
08:35 -5.9 °C -10.4 °C 34486.4 hPa Calm     60 % 0 mm 274.0 W/m2 CLR
08:40 -5.8 °C -10.3 °C 34486.4 hPa Calm     60 % 0 mm 290.0 W/m2 CLR
08:45 -5.8 °C -10.3 °C 34486.4 hPa Calm     60 % 0 mm 308.0 W/m2 CLR
08:50 -5.7 °C -10.2 °C 34486.4 hPa Calm     60 % 0 mm 322.0 W/m2 CLR
08:55 -5.6 °C -10.1 °C 34486.4 hPa Calm     60 % 0 mm 338.0 W/m2 CLR
09:00 -5.5 °C -10.3 °C 34486.4 hPa Calm     58 % 0 mm 352.0 W/m2 CLR
09:05 -5.4 °C -10.3 °C 34476.3 hPa Calm     57 % 0 mm 367.0 W/m2 CLR
09:10 -5.2 °C -10.1 °C 34476.3 hPa Calm     57 % 0 mm 385.0 W/m2 CLR
09:15 -4.9 °C -10.1 °C 34476.3 hPa Calm     56 % 0 mm 399.0 W/m2 CLR
09:20 -4.7 °C -10 °C 34476.3 hPa Calm     55 % 0 mm 415.0 W/m2 CLR
09:25 -4.4 °C -9.9 °C 34476.3 hPa Calm     54 % 0 mm 429.0 W/m2 CLR
09:30 -4.3 °C -9.9 °C 34476.3 hPa Calm     53 % 0 mm 446.0 W/m2 CLR
09:35 -4.2 °C -9.9 °C 34476.3 hPa Calm     53 % 0 mm 462.0 W/m2 CLR
09:40 -3.9 °C -9.6 °C 34476.3 hPa ENE 9 km/h 9 km/h 53 % 0 mm 475.0 W/m2 CLR
09:45 -3.8 °C -9.8 °C 34476.3 hPa Calm     51 % 0 mm 490.0 W/m2 CLR
09:50 -3.8 °C -9.8 °C 34476.3 hPa ENE 15 km/h 15 km/h 51 % 0 mm 504.0 W/m2 CLR
09:55 -3.7 °C -9.7 °C 34476.3 hPa ENE 7.7 km/h 7.7 km/h 51 % 0 mm 522.0 W/m2 CLR
10:00 -3.6 °C -9.7 °C 34476.3 hPa ENE 17.9 km/h 17.9 km/h 51 % 0 mm 534.0 W/m2 CLR
10:05 -3.6 °C -9.6 °C 34476.3 hPa ENE 15 km/h 15 km/h 51 % 0 mm 550.0 W/m2 CLR
10:10 -3.5 °C -9.7 °C 34476.3 hPa ENE 15.6 km/h 15.6 km/h 50 % 0 mm 566.0 W/m2 CLR
10:15 -3.4 °C -9.7 °C 34476.3 hPa East 11.9 km/h 11.9 km/h 50 % 0 mm 580.0 W/m2 CLR
10:20 -3.4 °C -9.8 °C 34462.7 hPa East 15 km/h 15 km/h 49 % 0 mm 594.0 W/m2 CLR
10:25 -3.3 °C -9.6 °C 34462.7 hPa ENE 11.9 km/h 11.9 km/h 50 % 0 mm 610.0 W/m2 CLR
10:30 -3.1 °C -9.6 °C 34462.7 hPa NNE 12.9 km/h 12.9 km/h 49 % 0 mm 624.0 W/m2 CLR
10:35 -2.9 °C -9.8 °C 34462.7 hPa NNE 17.9 km/h 17.9 km/h 47 % 0 mm 636.0 W/m2 CLR
10:40 -2.9 °C -9.9 °C 34462.7 hPa ENE 12.9 km/h 12.9 km/h 46 % 0 mm 649.0 W/m2 CLR
10:45 -2.7 °C -9.8 °C 34462.7 hPa Calm     46 % 0 mm 661.0 W/m2 CLR
10:50 -2.6 °C -9.8 °C 34462.7 hPa Calm     45 % 0 mm 677.0 W/m2 CLR
10:55 -2.3 °C -9.8 °C 34462.7 hPa ENE 23.8 km/h 23.8 km/h 44 % 0 mm 687.0 W/m2 CLR
10:56 -2.3 °C -9.8 °C 34462.7 hPa NE 17.9 km/h 17.9 km/h 44 % 0 mm 689.0 W/m2 CLR
11:01 -2.2 °C -9.7 °C 34452.6 hPa ENE 11.9 km/h 11.9 km/h 44 % 0 mm 701.0 W/m2 CLR
11:06 -2.2 °C -9.6 °C 34452.6 hPa NE 11.9 km/h 11.9 km/h 44 % 0 mm 715.0 W/m2 CLR
11:11 -2.2 °C -9.4 °C 34452.6 hPa NE 10.3 km/h 10.3 km/h 45 % 0 mm 726.0 W/m2 CLR
11:16 -2.1 °C -9.6 °C 34452.6 hPa NE 17.9 km/h 17.9 km/h 44 % 0 mm 737.0 W/m2 CLR
11:22 -2.1 °C -9.6 °C 34452.6 hPa NE 18.2 km/h 18.2 km/h 44 % 0 mm 749.0 W/m2 CLR
11:27 -2.1 °C -9.5 °C 34452.6 hPa NE 11.9 km/h 11.9 km/h 44 % 0 mm 761.0 W/m2 CLR
11:32 -1.8 °C -9.7 °C 34452.6 hPa NE 17.9 km/h 17.9 km/h 42 % 0 mm 768.0 W/m2 CLR
11:37 -1.8 °C -9.7 °C 34452.6 hPa NE 6 km/h 6 km/h 42 % 0 mm 780.0 W/m2 CLR
11:42 -1.6 °C -9.7 °C 34442.4 hPa ENE 15 km/h 15 km/h 41 % 0 mm 789.0 W/m2 CLR
11:47 -1.4 °C -9.5 °C 34442.4 hPa ENE 17.9 km/h 17.9 km/h 41 % 0 mm 800.0 W/m2 CLR
11:52 -1.3 °C -9.4 °C 34442.4 hPa ESE 12.9 km/h 12.9 km/h 41 % 0 mm 812.0 W/m2 CLR
11:57 -1.2 °C -9.5 °C 34442.4 hPa Calm     40 % 0 mm 816.0 W/m2 CLR
12:02 -1.1 °C -9.4 °C 34442.4 hPa ESE 7.7 km/h 7.7 km/h 40 % 0 mm 830.0 W/m2 CLR
12:07 -1.1 °C -9.5 °C 34442.4 hPa ENE 20.9 km/h 20.9 km/h 40 % 0 mm 837.0 W/m2 CLR
12:12 -1.2 °C -9.5 °C 34428.8 hPa ENE 20.9 km/h 20.9 km/h 40 % 0 mm 847.0 W/m2 CLR
12:17 -1.1 °C -9.7 °C 34428.8 hPa NE 23.8 km/h 23.8 km/h 39 % 0 mm 853.0 W/m2 CLR
12:22 -0.9 °C -9.8 °C 34428.8 hPa NE 26.9 km/h 26.9 km/h 38 % 0 mm 861.0 W/m2 CLR
12:27 -0.9 °C -10.1 °C 34428.8 hPa NNE 29.8 km/h 29.8 km/h 37 % 0 mm 868.0 W/m2 CLR
12:32 -0.9 °C -9.8 °C 34428.8 hPa ENE 23.8 km/h 23.8 km/h 38 % 0 mm 877.0 W/m2 CLR
12:37 -0.8 °C -9.7 °C 34428.8 hPa ESE 20.9 km/h 20.9 km/h 38 % 0 mm 886.0 W/m2 CLR
12:42 -0.7 °C -9.6 °C 34418.7 hPa NE 23.8 km/h 23.8 km/h 38 % 0 mm 889.0 W/m2 CLR
12:47 -0.7 °C -9.8 °C 34418.7 hPa North 7.7 km/h 7.7 km/h 37 % 0 mm 895.0 W/m2 CLR
12:52 -0.5 °C -9.6 °C 34418.7 hPa NE 23.3 km/h 23.3 km/h 37 % 0 mm 902.0 W/m2 CLR
12:57 -0.4 °C -9.6 °C 34418.7 hPa NE 23.8 km/h 23.8 km/h 37 % 0 mm 905.0 W/m2 CLR
13:02 -0.3 °C -9.5 °C 34418.7 hPa NNE 26.9 km/h 26.9 km/h 37 % 0 mm 911.0 W/m2 CLR
13:07 -0.3 °C -9.5 °C 34405.1 hPa NE 36.2 km/h 36.2 km/h 37 % 0 mm 916.0 W/m2 CLR
13:12 -0.4 °C -9.6 °C 34405.1 hPa NNW 29.8 km/h 29.8 km/h 37 % 0 mm 919.0 W/m2 CLR
13:17 -0.3 °C -9.7 °C 34405.1 hPa ENE 20.9 km/h 20.9 km/h 36 % 0 mm 926.0 W/m2 CLR
13:22 -0.2 °C -9.6 °C 34405.1 hPa NNW 11.9 km/h 11.9 km/h 36 % 0 mm 926.0 W/m2 CLR
13:27 -0.2 °C -9.6 °C 34405.1 hPa North 9 km/h 9 km/h 36 % 0 mm 928.0 W/m2 CLR
13:32 -0.1 °C -9.9 °C 34405.1 hPa ESE 6 km/h 6 km/h 34 % 0 mm 930.0 W/m2 CLR
13:37 0.1 °C -9.6 °C 34395 hPa East 15.6 km/h 15.6 km/h 35 % 0 mm 933.0 W/m2 CLR
13:42 0.2 °C -9.7 °C 34395 hPa East 7.7 km/h 7.7 km/h 34 % 0 mm 935.0 W/m2 CLR
13:47 0.5 °C -9.7 °C 34395 hPa ENE 11.9 km/h 11.9 km/h 33 % 0 mm 935.0 W/m2 CLR
13:52 0.6 °C -9.9 °C 34395 hPa Calm     32 % 0 mm 935.0 W/m2 CLR
13:57 0.4 °C -9.5 °C 34395 hPa Calm     34 % 0 mm 937.0 W/m2 CLR
14:02 0.4 °C -9.8 °C 34395 hPa NNE 15 km/h 15 km/h 33 % 0 mm 939.0 W/m2 CLR
14:07 0.4 °C -9.6 °C 34395 hPa East 26.9 km/h 26.9 km/h 34 % 0 mm 937.0 W/m2 CLR
14:12 0.3 °C -9.4 °C 34395 hPa East 15.6 km/h 15.6 km/h 35 % 0 mm 937.0 W/m2 CLR
14:17 0.4 °C -9.6 °C 34384.8 hPa Calm     34 % 0 mm 933.0 W/m2 CLR
14:22 0.4 °C -9.6 °C 34384.8 hPa NE 11.9 km/h 11.9 km/h 34 % 0 mm 932.0 W/m2 CLR
14:27 0.4 °C -9.5 °C 34384.8 hPa SE 18.2 km/h 18.2 km/h 34 % 0 mm 928.0 W/m2 CLR
14:32 0.6 °C -9.4 °C 34384.8 hPa ESE 31.1 km/h 31.1 km/h 34 % 0 mm 932.0 W/m2 CLR
14:37 0.4 °C -9.6 °C 34371.3 hPa SSE 17.9 km/h 17.9 km/h 34 % 0 mm 930.0 W/m2 CLR
14:42 0.3 °C -9.4 °C 34371.3 hPa ENE 38.8 km/h 38.8 km/h 35 % 0 mm 923.0 W/m2 CLR
14:47 0.4 °C -9.3 °C 34371.3 hPa SE 32.8 km/h 32.8 km/h 35 % 0 mm 921.0 W/m2 CLR
14:52 0.5 °C -9.4 °C 34371.3 hPa SE 26.9 km/h 26.9 km/h 34 % 0 mm 919.0 W/m2 CLR
14:57 0.6 °C -9.4 °C 34371.3 hPa ENE 31.1 km/h 31.1 km/h 34 % 0 mm 914.0 W/m2 CLR
15:02 0.5 °C -9.4 °C 34371.3 hPa ESE 32.8 km/h 32.8 km/h 34 % 0 mm 914.0 W/m2 CLR
15:07 0.4 °C -9.3 °C 34361.1 hPa SSE 15 km/h 15 km/h 35 % 0 mm 907.0 W/m2 CLR
15:12 0.4 °C -9.3 °C 34361.1 hPa East 23.8 km/h 23.8 km/h 35 % 0 mm 902.0 W/m2 CLR
15:17 0.4 °C -9.3 °C 34361.1 hPa East 26.9 km/h 26.9 km/h 35 % 0 mm 900.0 W/m2 CLR
15:22 0.4 °C -9.3 °C 34361.1 hPa ESE 25.9 km/h 25.9 km/h 35 % 0 mm 893.0 W/m2 CLR
15:27 0.4 °C -9.6 °C 34361.1 hPa ESE 38.8 km/h 38.8 km/h 34 % 0 mm 888.0 W/m2 CLR
15:32 0.4 °C -9.6 °C 34361.1 hPa East 29.8 km/h 29.8 km/h 34 % 0 mm 877.0 W/m2 CLR
15:37 0.4 °C -9.3 °C 34361.1 hPa ESE 35.7 km/h 35.7 km/h 35 % 0 mm 881.0 W/m2 CLR
15:42 0.4 °C -9.3 °C 34361.1 hPa East 23.8 km/h 23.8 km/h 35 % 0 mm 861.0 W/m2 CLR
15:47 0.4 °C -9.3 °C 34347.6 hPa ENE 35.7 km/h 35.7 km/h 35 % 0 mm 860.0 W/m2 CLR
15:53 0.5 °C -9.2 °C 34347.6 hPa ENE 29.8 km/h 29.8 km/h 35 % 0 mm 849.0 W/m2 CLR
15:58 0.5 °C -9.7 °C 34361.1 hPa ESE 41.7 km/h 41.7 km/h 33 % 0 mm 851.0 W/m2 CLR
16:03 0.4 °C -9.8 °C 34347.6 hPa SE 38.8 km/h 38.8 km/h 33 % 0 mm 833.0 W/m2 CLR
16:08 0.3 °C -9.6 °C 34347.6 hPa South 32.8 km/h 32.8 km/h 34 % 0 mm 824.0 W/m2 CLR
16:13 0.4 °C -9.6 °C 34347.6 hPa ESE 29.8 km/h 29.8 km/h 34 % 0 mm 817.0 W/m2 CLR
16:18 0.4 °C -9.6 °C 34347.6 hPa ESE 29.8 km/h 29.8 km/h 34 % 0 mm 810.0 W/m2 CLR
16:23 0.3 °C -9.7 °C 34347.6 hPa SE 41.7 km/h 41.7 km/h 34 % 0 mm 798.0 W/m2 CLR
16:28 0.3 °C -9.7 °C 34347.6 hPa SSE 38.8 km/h 38.8 km/h 34 % 0 mm 788.0 W/m2 CLR
16:33 0.1 °C -9.6 °C 34347.6 hPa SSE 33.6 km/h 33.6 km/h 35 % 0 mm 779.0 W/m2 CLR
16:38 0.2 °C -9.5 °C 34347.6 hPa ENE 26.9 km/h 26.9 km/h 35 % 0 mm 766.0 W/m2 CLR
16:43 0.2 °C -9.5 °C 34347.6 hPa ESE 38.8 km/h 38.8 km/h 35 % 0 mm 756.0 W/m2 CLR
16:48 0.2 °C -9.8 °C 34347.6 hPa ESE 29.8 km/h 29.8 km/h 34 % 0 mm 745.0 W/m2 CLR
16:53 0.2 °C -9.8 °C 34347.6 hPa SE 50.7 km/h 50.7 km/h 34 % 0 mm 738.0 W/m2 CLR
16:58 0.2 °C -9.8 °C 34347.6 hPa SE 46.7 km/h 46.7 km/h 34 % 0 mm 729.0 W/m2 CLR
17:03 -0.1 °C -9.9 °C 34347.6 hPa ESE 47.6 km/h 47.6 km/h 34 % 0 mm 715.0 W/m2 CLR
17:08 -0.1 °C -9.7 °C 34337.4 hPa ESE 44.7 km/h 44.7 km/h 35 % 0 mm 705.0 W/m2 CLR
17:14 0.2 °C -9.5 °C 34347.6 hPa SSE 41.4 km/h 41.4 km/h 35 % 0 mm 691.0 W/m2 CLR
17:19 0.1 °C -9.9 °C 34337.4 hPa ESE 41.7 km/h 41.7 km/h 34 % 0 mm 680.0 W/m2 CLR
17:24 0 °C -9.7 °C 34337.4 hPa East 35.7 km/h 35.7 km/h 35 % 0 mm 668.0 W/m2 CLR
17:29 0 °C -9.7 °C 34337.4 hPa ESE 51.8 km/h 51.8 km/h 35 % 0 mm 656.0 W/m2 CLR
17:30 -0.1 °C -9.9 °C 34337.4 hPa East 50.7 km/h 50.7 km/h 34 % 0 mm 652.0 W/m2 CLR
17:35 0.1 °C -9.6 °C 34337.4 hPa ESE 38.8 km/h 38.8 km/h 35 % 0 mm 640.0 W/m2 CLR
17:40 0 °C -9.7 °C 34327.3 hPa ESE 54.4 km/h 54.4 km/h 35 % 0 mm 624.0 W/m2 CLR
17:45 -0.1 °C -9.7 °C 34327.3 hPa SE 47.6 km/h 47.6 km/h 35 % 0 mm 608.0 W/m2 CLR
17:50 0.1 °C -9.9 °C 34327.3 hPa SSE 35.7 km/h 35.7 km/h 34 % 0 mm 599.0 W/m2 CLR
17:55 0 °C -9.9 °C 34327.3 hPa ESE 35.7 km/h 35.7 km/h 34 % 0 mm 584.0 W/m2 CLR
18:00 -0.1 °C -9.9 °C 34327.3 hPa ESE 41.7 km/h 41.7 km/h 34 % 0 mm 570.0 W/m2 CLR
18:05 0.1 °C -9.9 °C 34327.3 hPa ESE 32.8 km/h 32.8 km/h 34 % 0 mm 555.0 W/m2 CLR
18:10 0 °C -10.2 °C 34327.3 hPa ESE 41.7 km/h 41.7 km/h 33 % 0 mm 545.0 W/m2 CLR
18:15 0 °C -10.4 °C 34327.3 hPa SE 38.8 km/h 38.8 km/h 32 % 0 mm 529.0 W/m2 CLR
18:20 -0.1 °C -10.5 °C 34327.3 hPa SE 50.7 km/h 50.7 km/h 32 % 0 mm 515.0 W/m2 CLR
18:25 -0.2 °C -10.3 °C 34327.3 hPa SSE 47.6 km/h 47.6 km/h 33 % 0 mm 501.0 W/m2 CLR
18:30 -0.2 °C -10.4 °C 34327.3 hPa ESE 38.8 km/h 38.8 km/h 33 % 0 mm 483.0 W/m2 CLR
18:35 -0.3 °C -10.4 °C 34327.3 hPa East 35.7 km/h 35.7 km/h 33 % 0 mm 469.0 W/m2 CLR
18:40 -0.4 °C -10.2 °C 34327.3 hPa ESE 32.8 km/h 32.8 km/h 34 % 0 mm 455.0 W/m2 CLR
18:45 -0.5 °C -10.3 °C 34327.3 hPa ESE 41.7 km/h 41.7 km/h 34 % 0 mm 439.0 W/m2 CLR
18:50 -0.5 °C -10.1 °C 34327.3 hPa ESE 29.8 km/h 29.8 km/h 35 % 0 mm 420.0 W/m2 CLR
18:55 -0.5 °C -10.1 °C 34313.7 hPa SE 32.8 km/h 32.8 km/h 35 % 0 mm 408.0 W/m2 CLR
19:00 -0.5 °C -10.1 °C 34313.7 hPa ESE 29.8 km/h 29.8 km/h 35 % 0 mm 392.0 W/m2 CLR
19:05 -0.6 °C -10.2 °C 34327.3 hPa SE 32.8 km/h 32.8 km/h 35 % 0 mm 376.0 W/m2 CLR
19:10 -0.6 °C -10.2 °C 34313.7 hPa SE 38.8 km/h 38.8 km/h 35 % 0 mm 360.0 W/m2 CLR
19:15 -0.8 °C -10.1 °C 34327.3 hPa ESE 47.6 km/h 47.6 km/h 36 % 0 mm 345.0 W/m2 CLR
19:20 -0.8 °C -10.1 °C 34327.3 hPa SE 44.7 km/h 44.7 km/h 36 % 0 mm 330.0 W/m2 CLR
19:25 -0.8 °C -10.4 °C 34327.3 hPa SE 38.8 km/h 38.8 km/h 35 % 0 mm 316.0 W/m2 CLR
19:30 -0.9 °C -10.4 °C 34327.3 hPa SE 44.7 km/h 44.7 km/h 35 % 0 mm 301.0 W/m2 CLR
19:35 -0.8 °C -10.4 °C 34327.3 hPa SE 35.7 km/h 35.7 km/h 35 % 0 mm 283.0 W/m2 CLR
19:40 -0.9 °C -10.4 °C 34327.3 hPa SSE 35.7 km/h 35.7 km/h 35 % 0 mm 265.0 W/m2 CLR
19:45 -1 °C -10.3 °C 34327.3 hPa ESE 38.8 km/h 38.8 km/h 36 % 0 mm 250.0 W/m2 CLR
19:50 -1.1 °C -10.6 °C 34327.3 hPa SSE 44.7 km/h 44.7 km/h 35 % 0 mm 236.0 W/m2 CLR
19:55 -1.1 °C -10.6 °C 34327.3 hPa SE 31.1 km/h 31.1 km/h 35 % 0 mm 216.0 W/m2 CLR
20:00 -1.2 °C -10.4 °C 34327.3 hPa ESE 41.4 km/h 41.4 km/h 36 % 0 mm 199.0 W/m2 CLR
20:05 -1.2 °C -10.7 °C 34327.3 hPa South 28.5 km/h 28.5 km/h 35 % 0 mm 183.0 W/m2 CLR
20:06 -1.2 °C -10.7 °C 34327.3 hPa SSE 29.8 km/h 29.8 km/h 35 % 0 mm 179.0 W/m2 CLR
20:11 -1.3 °C -10.3 °C 34327.3 hPa SE 29.8 km/h 29.8 km/h 37 % 0 mm 163.0 W/m2 CLR
20:16 -1.3 °C -10.3 °C 34327.3 hPa SE 35.7 km/h 35.7 km/h 37 % 0 mm 148.0 W/m2 CLR
20:21 -1.4 °C -10.4 °C 34313.7 hPa SE 38.8 km/h 38.8 km/h 37 % 0 mm 135.0 W/m2 CLR
20:26 -1.6 °C -10.6 °C 34327.3 hPa SE 35.7 km/h 35.7 km/h 37 % 0 mm 116.0 W/m2 CLR
20:31 -1.6 °C -10.6 °C 34327.3 hPa SE 35.7 km/h 35.7 km/h 37 % 0 mm 100.0 W/m2 CLR
20:36 -1.7 °C -10.7 °C 34327.3 hPa South 35.7 km/h 35.7 km/h 37 % 0 mm 86.0 W/m2 CLR
20:41 -1.7 °C -10.4 °C 34327.3 hPa SE 32.8 km/h 32.8 km/h 38 % 0 mm 72.0 W/m2 FEW
20:46 -1.8 °C -10.6 °C 34327.3 hPa SSE 32.8 km/h 32.8 km/h 38 % 0 mm 60.0 W/m2 SCT
20:51 -1.9 °C -10.4 °C 34327.3 hPa SE 32.8 km/h 32.8 km/h 39 % 0 mm 18.0 W/m2 BKN
20:56 -2 °C -10.5 °C 34327.3 hPa SE 29.8 km/h 29.8 km/h 39 % 0 mm 33.0 W/m2 BKN
21:01 -2.1 °C -10.6 °C 34337.4 hPa SSE 41.7 km/h 41.7 km/h 39 % 0 mm 25.0 W/m2 BKN
21:06 -2.2 °C -10.7 °C 34327.3 hPa SSE 29.8 km/h 29.8 km/h 39 % 0 mm 18.0 W/m2 BKN
21:11 -2.3 °C -10.5 °C 34337.4 hPa South 26.9 km/h 26.9 km/h 40 % 0 mm 12.0 W/m2 BKN
21:16 -2.4 °C -10.6 °C 34337.4 hPa SSE 28.5 km/h 28.5 km/h 40 % 0 mm 11.0 W/m2 BKN
21:21 -2.5 °C -10.5 °C 34337.4 hPa SSE 17.9 km/h 17.9 km/h 41 % 0 mm 9.0 W/m2 BKN
21:26 -2.6 °C -10.6 °C 34337.4 hPa SE 23.8 km/h 23.8 km/h 41 % 0 mm 7.0 W/m2 BKN
21:31 -2.7 °C -10.5 °C 34337.4 hPa SE 25.9 km/h 25.9 km/h 42 % 0 mm 5.0 W/m2 OVC
21:36 -2.9 °C -10.4 °C 34347.6 hPa SSE 29.8 km/h 29.8 km/h 43 % 0 mm 0.0 W/m2 OVC
21:41 -3 °C -10.6 °C 34337.4 hPa SE 23.8 km/h 23.8 km/h 43 % 0 mm 0.0 W/m2 OVC
21:46 -3.1 °C -10.7 °C 34337.4 hPa SSE 15.6 km/h 15.6 km/h 43 % 0 mm 0.0 W/m2 CLR
21:51 -3.2 °C -10.7 °C 34347.6 hPa SE 11.9 km/h 11.9 km/h 43 % 0 mm 0.0 W/m2 CLR
22:01 -3.4 °C -10.7 °C 34347.6 hPa SE 15 km/h 15 km/h 44 % 0 mm 0.0 W/m2 CLR
22:06 -3.5 °C -10.8 °C 34347.6 hPa SSE 20.9 km/h 20.9 km/h 44 % 0 mm 0.0 W/m2 CLR
22:11 -3.6 °C -10.9 °C 34347.6 hPa SSE 20.9 km/h 20.9 km/h 44 % 0 mm 0.0 W/m2 CLR
22:16 -3.6 °C -10.9 °C 34347.6 hPa SSE 23.8 km/h 23.8 km/h 44 % 0 mm 0.0 W/m2 CLR
22:21 -3.7 °C -11 °C 34347.6 hPa SE 23.8 km/h 23.8 km/h 44 % 0 mm 0.0 W/m2 CLR
22:26 -3.7 °C -11 °C 34361.1 hPa SE 20.9 km/h 20.9 km/h 44 % 0 mm 0.0 W/m2 CLR
22:31 -3.8 °C -11.1 °C 34361.1 hPa SSE 26.9 km/h 26.9 km/h 44 % 0 mm 0.0 W/m2 CLR
22:36 -3.8 °C -11.2 °C 34361.1 hPa SSE 17.9 km/h 17.9 km/h 44 % 0 mm 0.0 W/m2 CLR
22:41 -3.9 °C -11.2 °C 34361.1 hPa SE 20.9 km/h 20.9 km/h 44 % 0 mm 0.0 W/m2 CLR
22:46 -4 °C -11.3 °C 34361.1 hPa SSE 15 km/h 15 km/h 44 % 0 mm 0.0 W/m2 CLR
22:51 -4.1 °C -11.3 °C 34361.1 hPa Calm     44 % 0 mm 0.0 W/m2 CLR
22:56 -4.2 °C -11.4 °C 34371.3 hPa SSE 12.9 km/h 12.9 km/h 44 % 0 mm 0.0 W/m2 CLR
23:01 -4.2 °C -11.4 °C 34371.3 hPa SSE 11.9 km/h 11.9 km/h 44 % 0 mm 0.0 W/m2 CLR
23:06 -4.2 °C -11.5 °C 34371.3 hPa Calm     44 % 0 mm 0.0 W/m2 CLR
23:11 -4.3 °C -11.6 °C 34371.3 hPa Calm     44 % 0 mm 0.0 W/m2 CLR
23:16 -4.4 °C -11.4 °C 34371.3 hPa Calm     45 % 0 mm 0.0 W/m2 CLR
23:21 -4.5 °C -11.3 °C 34371.3 hPa Calm     46 % 0 mm 0.0 W/m2 CLR
23:26 -4.7 °C -11.3 °C 34371.3 hPa Calm     47 % 0 mm 0.0 W/m2 CLR
23:31 -4.8 °C -11.2 °C 34371.3 hPa Calm     48 % 0 mm 0.0 W/m2 CLR
23:36 -4.9 °C -11.2 °C 34371.3 hPa Calm     49 % 0 mm 0.0 W/m2 CLR
23:41 -5 °C -11.1 °C 34371.3 hPa Calm     50 % 0 mm 0.0 W/m2 CLR
23:46 -5.1 °C -11.2 °C 34371.3 hPa Calm     50 % 0 mm 0.0 W/m2 CLR
23:51 -5.2 °C -11.1 °C 34371.3 hPa Calm     51 % 0 mm 0.0 W/m2 CLR
23:56 -5.2 °C -11 °C 34371.3 hPa Calm     52 % 0 mm 0.0 W/m2 CLR
Lo Temps de Massalio
Compliments of Weather Underground - 1.25 mb